sat.trackr.live / text

‹ back to catalog

STARLINK-11736 [DTC]

NORAD 64317 · 2025-124A

PAYLOAD ACTIVE UNKNOWN

§ Identity

Operator
Country
US
Launch date
2025-06-10
Launch site
AFETR
Launch vehicle
Mass (kg)
RCS (m²)

Purposes: comms

External: N2YO · Heavens-Above · Gunter

§ Orbital elements

Epoch: 2026-09-20T09:32:26.556576Z

Period
91.67 min
Inclination
42.9984°
Eccentricity
0.0000480
Mean motion
15.70850744 rev/d
Perigee alt
356.1 km
Apogee alt
356.8 km
Semi-major
6,734.6 km
B*
1.2578e-3
RAAN
295.8704°
Arg perigee
228.2968°
Mean anomaly
131.7859°
Rev number
7,345

§ Raw data

STARLINK-11736 [DTC]1 64317U 25124A   26263.39752959  .00164250  00000+0  12578-2 0  99952 64317  42.9984 295.8704 0000480 228.2968 131.7859 15.70850744 73457

JSON: /api/v1/satellites/64317 · /tle

For live sub-satellite position, see the globe view (requires WebGL).

§ Visibility from observer

Set your observer location to see the next 7 days of passes ≥ 10°. The values pass through the URL so the page stays shareable.

No JS? Fill the form by hand. The geolocation button needs JavaScript.